Location: Bottenau
(48.5138°N, 8.0462°E)
Time: 20:31:24
(UTC+00:00)

Okean 3 Rocket - Pass Details

Date: 18 April 2021
Orbit: 615 x 645 km, 82.5° (Epoch: 18 May)

Event Time Altitude Azimuth Distance (km) Brightness Sun altitude
Rises 20:52:02 0° 352° (N) 2,968 8.0 -21.2°
Reaches altitude 10° 20:54:19 10° 354° (N) 2,051 7.0 -21.5°
Maximum altitude 20:58:52 71° 79° (E) 682 3.6 -22.0°
Enters shadow 20:59:21 64° 124° (ESE) 712 3.5 -22.0°
